Lid_Strength_Index
7 6 6 6 6 5 4 2 1 1 1 1 0 0 1 1 1 1 1 2 2 3
7 7 7 6 6 6 4 2 1 1 1 1 1 1 1 1 2 1 1 1 2 3
7 6 6 7 7 6 4 3 1 1 1 1 1 1 1 1 1 2 2 1 2 3
7 7 6 7 6 6 5 3 2 1 1 1 1 1 1 2 2 2 2 2 2 2
7 7 7 7 6 6 5 4 3 2 2 2 1 1 2 2 2 2 2 2 2 2
7 8 8 7 6 6 6 4 4 3 3 2 2 1 2 2 2 2 2 2 2 2
7 7 8 7 7 6 5 5 4 4 3 2 2 2 2 2 2 2 2 2 2 2
7 8 8 7 7 6 6 5 4 4 3 2 2 2 2 2 2 2 2 2 2 1
7 8 8 8 7 6 6 6 5 5 5 3 2 6 6 3 2 2 2 2 2 1
8 8 8 7 7 7 7 6 6 6 5 3 2 8 8 7 2 2 3 2 2 2
9 8 8 8 7 7 6 7 6 6 5 4 2 9 9 8 2 2 2 2 2 2
9 8 8 8 7 7 6 7 6 5 5 5 3 9 9 7 2 3 2 2 2 2
8 7 8 7 7 6 6 6 5 5 4 5 4 8 10 6 2 3 3 3 2 6
8 8 7 7 5 5 6 5 5 5 4 4 4 8 10 9 2 3 3 3 3 4